Location: Rochester
(43.1610°N, 77.6109°W)
Time: 03:19:04
(UTC-05:00)

ISS - Visible Passes

Search period start: 25 January 2021 00:00
Search period end: 04 February 2021 00:00
Orbit: 418 x 421 km, 51.6° (Epoch: 25 January)

Date Brightness Start Highest point End Pass type
(mag) Time Alt. Az. Time Alt. Az. Time Alt. Az.
25 Jan -2.1 18:10:37 10° WNW 18:13:31 26° NNW 18:15:55 13° NE visible
25 Jan -0.6 19:48:35 10° NW 19:48:54 11° NW 19:48:54 11° NW visible
26 Jan -1.7 19:01:01 10° NW 19:03:28 19° N 19:03:28 19° N visible
27 Jan -1.8 18:13:23 10° NW 18:15:57 20° N 18:18:02 12° NE visible
27 Jan -0.6 19:50:45 10° NW 19:51:00 11° NW 19:51:00 11° NW visible
28 Jan -1.9 19:03:21 10° NW 19:05:35 20° N 19:05:35 20° N visible
29 Jan -1.9 18:15:51 10° NW 18:18:24 19° N 18:20:10 14° NE visible
29 Jan -0.7 19:52:39 10° NW 19:53:09 13° NW 19:53:09 13° NW visible
30 Jan -2.4 19:05:19 10° NW 19:07:46 28° N 19:07:46 28° N visible
31 Jan -2.3 18:17:56 10° NW 18:20:46 24° NNE 18:22:28 17° ENE visible
31 Jan -1.0 19:54:32 10° WNW 19:55:27 17° WNW 19:55:27 17° WNW visible
01 Feb -3.5 19:07:08 10° NW 19:10:13 55° N 19:10:13 55° N visible
02 Feb -3.1 18:19:45 10° NW 18:22:58 39° NNE 18:25:05 18° E visible
02 Feb -1.1 19:56:40 10° WNW 19:58:05 21° W 19:58:05 21° W visible
03 Feb -3.2 19:09:03 10° WNW 19:12:22 55° SW 19:13:06 43° S visible
